contact:dominique.lefevre@mio.osupytheas.fr, maurice.libes@osupytheas.fr, didier.mallarino@osupytheas.fr
Project:EMSO http://www.emso-fr.org/EMSO-France
Depth: 2436.0 m
Title:EMSO Ligure Ouest : Data MII capteur MICROCAT
DateTime_Computer,Latitude,Longitude,Temperature,Conductivity,Pressure,DateTime_Instrument
DateTime_Computer,Latitude,Longitude,degC,S m-1,dbar,DateTime_Instrument
2020-06-28T00:02:52Z,42.805,6.029,13.2977,4.59977,2470.194,2020-6-28T02:03:37Z
2020-06-28T00:05:55Z,42.805,6.029,13.2972,4.59979,2470.18,2020-6-28T02:06:40Z
2020-06-28T00:08:58Z,42.805,6.029,13.2976,4.59985,2470.18,2020-6-28T02:09:44Z
2020-06-28T00:12:01Z,42.805,6.029,13.2971,4.59982,2470.203,2020-6-28T02:12:47Z
2020-06-28T00:15:05Z,42.805,6.029,13.2971,4.59981,2470.194,2020-6-28T02:15:50Z
2020-06-28T00:18:08Z,42.805,6.029,13.2973,4.59981,2470.18,2020-6-28T02:18:53Z
2020-06-28T00:21:11Z,42.805,6.029,13.2972,4.59978,2470.203,2020-6-28T02:21:56Z
2020-06-28T00:24:14Z,42.805,6.029,13.2975,4.59990,2470.18,2020-6-28T02:25:00Z
2020-06-28T00:27:17Z,42.805,6.029,13.2971,4.59980,2470.18,2020-6-28T02:28:03Z
2020-06-28T00:30:21Z,42.805,6.029,13.2969,4.59978,2470.18,2020-6-28T02:31:06Z
2020-06-28T00:33:24Z,42.805,6.029,13.2971,4.59976,2470.18,2020-6-28T02:34:09Z
2020-06-28T00:36:27Z,42.805,6.029,13.2976,4.59978,2470.156,2020-6-28T02:37:13Z
2020-06-28T00:39:30Z,42.805,6.029,13.2974,4.59995,2470.203,2020-6-28T02:40:16Z
2020-06-28T00:42:34Z,42.805,6.029,13.2973,4.59978,2470.217,2020-6-28T02:43:19Z
2020-06-28T00:45:37Z,42.805,6.029,13.2972,4.59980,2470.203,2020-6-28T02:46:22Z
2020-06-28T00:48:40Z,42.805,6.029,13.2973,4.59978,2470.203,2020-6-28T02:49:26Z
2020-06-28T00:51:43Z,42.805,6.029,13.2975,4.59978,2470.18,2020-6-28T02:52:29Z
2020-06-28T00:54:47Z,42.805,6.029,13.2974,4.59981,2470.194,2020-6-28T02:55:32Z
2020-06-28T00:57:50Z,42.805,6.029,13.2974,4.59988,2470.18,2020-6-28T02:58:35Z
2020-06-28T01:00:53Z,42.805,6.029,13.2973,4.59979,2470.18,2020-6-28T03:01:39Z
2020-06-28T01:03:56Z,42.805,6.029,13.2974,4.59978,2470.18,2020-6-28T03:04:42Z
2020-06-28T01:06:59Z,42.805,6.029,13.2972,4.59979,2470.18,2020-6-28T03:07:45Z
2020-06-28T01:10:03Z,42.805,6.029,13.2974,4.59979,2470.171,2020-6-28T03:10:48Z
2020-06-28T01:13:06Z,42.805,6.029,13.2971,4.59979,2470.194,2020-6-28T03:13:51Z
2020-06-28T01:16:09Z,42.805,6.029,13.2974,4.59978,2470.18,2020-6-28T03:16:55Z
2020-06-28T01:19:12Z,42.805,6.029,13.2976,4.59981,2470.194,2020-6-28T03:19:58Z
2020-06-28T01:22:16Z,42.805,6.029,13.2974,4.59978,2470.194,2020-6-28T03:23:01Z
2020-06-28T01:25:19Z,42.805,6.029,13.2971,4.59976,2470.203,2020-6-28T03:26:04Z
2020-06-28T01:28:22Z,42.805,6.029,13.2973,4.59978,2470.156,2020-6-28T03:29:07Z
2020-06-28T01:31:26Z,42.805,6.029,13.2974,4.59979,2470.147,2020-6-28T03:32:11Z
2020-06-28T01:34:29Z,42.805,6.029,13.2972,4.59980,2470.194,2020-6-28T03:35:14Z
2020-06-28T01:37:32Z,42.805,6.029,13.2974,4.59979,2470.18,2020-6-28T03:38:18Z
2020-06-28T01:40:35Z,42.805,6.029,13.2972,4.59979,2470.133,2020-6-28T03:41:21Z
2020-06-28T01:43:39Z,42.805,6.029,13.2972,4.59981,2470.156,2020-6-28T03:44:24Z
2020-06-28T01:46:42Z,42.805,6.029,13.2975,4.59983,2470.156,2020-6-28T03:47:27Z
2020-06-28T01:49:45Z,42.805,6.029,13.2976,4.59976,2470.156,2020-6-28T03:50:31Z
2020-06-28T01:52:49Z,42.805,6.029,13.2972,4.59978,2470.156,2020-6-28T03:53:34Z
2020-06-28T01:55:52Z,42.805,6.029,13.2976,4.59977,2470.147,2020-6-28T03:56:37Z
2020-06-28T01:58:55Z,42.805,6.029,13.2971,4.59978,2470.171,2020-6-28T03:59:40Z
2020-06-28T02:01:58Z,42.805,6.029,13.2976,4.59980,2470.11,2020-6-28T04:02:44Z
2020-06-28T02:05:02Z,42.805,6.029,13.2974,4.59976,2470.156,2020-6-28T04:05:47Z
2020-06-28T02:08:05Z,42.805,6.029,13.2972,4.59980,2470.133,2020-6-28T04:08:50Z
2020-06-28T02:11:08Z,42.805,6.029,13.2977,4.59978,2470.133,2020-6-28T04:11:53Z
2020-06-28T02:14:11Z,42.805,6.029,13.2974,4.59980,2470.156,2020-6-28T04:14:57Z
2020-06-28T02:17:15Z,42.805,6.029,13.2981,4.59982,2470.171,2020-6-28T04:18:00Z
2020-06-28T02:20:18Z,42.805,6.029,13.2978,4.59981,2470.171,2020-6-28T04:21:03Z
2020-06-28T02:23:21Z,42.805,6.029,13.2976,4.59981,2470.156,2020-6-28T04:24:06Z
2020-06-28T02:26:24Z,42.805,6.029,13.2974,4.59987,2470.133,2020-6-28T04:27:10Z
2020-06-28T02:29:28Z,42.805,6.029,13.2973,4.59986,2470.133,2020-6-28T04:30:13Z
2020-06-28T02:32:31Z,42.805,6.029,13.2975,4.59980,2470.18,2020-6-28T04:33:16Z
2020-06-28T02:35:35Z,42.805,6.029,13.2975,4.59981,2470.124,2020-6-28T04:36:20Z
2020-06-28T02:38:38Z,42.805,6.029,13.2976,4.59981,2470.133,2020-6-28T04:39:23Z
2020-06-28T02:41:41Z,42.805,6.029,13.2976,4.59979,2470.171,2020-6-28T04:42:26Z
2020-06-28T02:44:44Z,42.805,6.029,13.2974,4.59979,2470.156,2020-6-28T04:45:30Z
2020-06-28T02:47:47Z,42.805,6.029,13.2972,4.59981,2470.133,2020-6-28T04:48:33Z
2020-06-28T02:50:51Z,42.805,6.029,13.2975,4.59978,2470.147,2020-6-28T04:51:36Z
2020-06-28T02:53:54Z,42.805,6.029,13.2969,4.59978,2470.133,2020-6-28T04:54:39Z
2020-06-28T02:56:57Z,42.805,6.029,13.2976,4.59980,2470.11,2020-6-28T04:57:43Z
2020-06-28T03:00:01Z,42.805,6.029,13.2973,4.59985,2470.133,2020-6-28T05:00:46Z
2020-06-28T03:03:04Z,42.805,6.029,13.2971,4.59983,2470.11,2020-6-28T05:03:49Z
2020-06-28T03:06:07Z,42.805,6.029,13.2974,4.59981,2470.124,2020-6-28T05:06:52Z
2020-06-28T03:09:10Z,42.805,6.029,13.2971,4.59981,2470.147,2020-6-28T05:09:56Z
2020-06-28T03:12:14Z,42.805,6.029,13.2974,4.59978,2470.11,2020-6-28T05:12:59Z
2020-06-28T03:15:17Z,42.805,6.029,13.2974,4.59982,2470.11,2020-6-28T05:16:02Z
2020-06-28T03:18:20Z,42.805,6.029,13.2981,4.59992,2470.147,2020-6-28T05:19:05Z
2020-06-28T03:21:23Z,42.805,6.029,13.2975,4.59983,2470.133,2020-6-28T05:22:09Z
2020-06-28T03:24:27Z,42.805,6.029,13.2974,4.59979,2470.11,2020-6-28T05:25:12Z
2020-06-28T03:27:30Z,42.805,6.029,13.2970,4.59987,2470.11,2020-6-28T05:28:15Z
2020-06-28T03:30:33Z,42.805,6.029,13.2976,4.59981,2470.11,2020-6-28T05:31:18Z
2020-06-28T03:33:36Z,42.805,6.029,13.2977,4.59982,2470.133,2020-6-28T05:34:22Z
2020-06-28T03:36:40Z,42.805,6.029,13.2973,4.59988,2470.1,2020-6-28T05:37:25Z
2020-06-28T03:39:43Z,42.805,6.029,13.2975,4.59985,2470.096,2020-6-28T05:40:28Z
2020-06-28T03:42:46Z,42.805,6.029,13.2975,4.59985,2470.11,2020-6-28T05:43:32Z
2020-06-28T03:45:49Z,42.805,6.029,13.2979,4.59981,2470.087,2020-6-28T05:46:35Z
2020-06-28T03:48:53Z,42.805,6.029,13.2976,4.59978,2470.1,2020-6-28T05:49:38Z
2020-06-28T03:51:56Z,42.805,6.029,13.2979,4.59986,2470.133,2020-6-28T05:52:41Z
2020-06-28T03:54:59Z,42.805,6.029,13.2974,4.59981,2470.11,2020-6-28T05:55:44Z
2020-06-28T03:58:02Z,42.805,6.029,13.2970,4.59988,2470.11,2020-6-28T05:58:48Z
2020-06-28T04:01:06Z,42.805,6.029,13.2975,4.59986,2470.11,2020-6-28T06:01:51Z
2020-06-28T04:04:09Z,42.805,6.029,13.2973,4.59981,2470.11,2020-6-28T06:04:54Z
2020-06-28T04:07:12Z,42.805,6.029,13.2974,4.59982,2470.087,2020-6-28T06:07:57Z
2020-06-28T04:10:15Z,42.805,6.029,13.2975,4.59982,2470.077,2020-6-28T06:11:01Z
2020-06-28T04:13:19Z,42.805,6.029,13.2974,4.59981,2470.087,2020-6-28T06:14:04Z
2020-06-28T04:16:22Z,42.805,6.029,13.2974,4.59978,2470.124,2020-6-28T06:17:07Z
2020-06-28T04:19:25Z,42.805,6.029,13.2976,4.59982,2470.077,2020-6-28T06:20:10Z
2020-06-28T04:22:28Z,42.805,6.029,13.2974,4.59982,2470.077,2020-6-28T06:23:14Z
2020-06-28T04:25:31Z,42.805,6.029,13.2973,4.59984,2470.1,2020-6-28T06:26:17Z
2020-06-28T04:28:35Z,42.805,6.029,13.2971,4.59979,2470.087,2020-6-28T06:29:20Z
2020-06-28T04:31:38Z,42.805,6.029,13.2978,4.59981,2470.1,2020-6-28T06:32:23Z
2020-06-28T04:34:41Z,42.805,6.029,13.2978,4.59991,2470.077,2020-6-28T06:35:27Z
2020-06-28T04:37:45Z,42.805,6.029,13.2976,4.59986,2470.087,2020-6-28T06:38:30Z
2020-06-28T04:40:48Z,42.805,6.029,13.2974,4.59983,2470.063,2020-6-28T06:41:33Z
2020-06-28T04:43:51Z,42.805,6.029,13.2975,4.59979,2470.11,2020-6-28T06:44:36Z
2020-06-28T04:46:54Z,42.805,6.029,13.2976,4.59980,2470.087,2020-6-28T06:47:39Z
2020-06-28T04:49:57Z,42.805,6.029,13.2970,4.59982,2470.077,2020-6-28T06:50:43Z
2020-06-28T04:53:01Z,42.805,6.029,13.2975,4.59980,2470.063,2020-6-28T06:53:46Z
2020-06-28T04:56:04Z,42.805,6.029,13.2976,4.59977,2470.063,2020-6-28T06:56:49Z
2020-06-28T04:59:07Z,42.805,6.029,13.2975,4.59980,2470.077,2020-6-28T06:59:53Z
2020-06-28T05:02:11Z,42.805,6.029,13.2976,4.59983,2470.04,2020-6-28T07:02:56Z
2020-06-28T05:05:14Z,42.805,6.029,13.2975,4.59990,2470.1,2020-6-28T07:05:59Z
2020-06-28T05:08:17Z,42.805,6.029,13.2972,4.59979,2470.087,2020-6-28T07:09:02Z
2020-06-28T05:11:20Z,42.805,6.029,13.2973,4.59987,2470.063,2020-6-28T07:12:06Z
2020-06-28T05:14:24Z,42.805,6.029,13.2974,4.59978,2470.053,2020-6-28T07:15:09Z
2020-06-28T05:17:27Z,42.805,6.029,13.2975,4.59981,2470.077,2020-6-28T07:18:12Z
2020-06-28T05:20:30Z,42.805,6.029,13.2976,4.59983,2470.077,2020-6-28T07:21:16Z
2020-06-28T05:23:33Z,42.805,6.029,13.2970,4.59980,2470.063,2020-6-28T07:24:19Z
2020-06-28T05:26:37Z,42.805,6.029,13.2973,4.59985,2470.053,2020-6-28T07:27:22Z
2020-06-28T05:29:40Z,42.805,6.029,13.2980,4.59983,2470.077,2020-6-28T07:30:25Z
2020-06-28T05:32:43Z,42.805,6.029,13.2974,4.59987,2470.063,2020-6-28T07:33:29Z
2020-06-28T05:35:46Z,42.805,6.029,13.2975,4.59979,2470.04,2020-6-28T07:36:32Z
2020-06-28T05:38:50Z,42.805,6.029,13.2977,4.59981,2470.017,2020-6-28T07:39:35Z
2020-06-28T05:41:53Z,42.805,6.029,13.2976,4.59983,2470.053,2020-6-28T07:42:39Z
2020-06-28T05:44:56Z,42.805,6.029,13.2975,4.59981,2470.063,2020-6-28T07:45:42Z
2020-06-28T05:48:00Z,42.805,6.029,13.2974,4.59984,2470.063,2020-6-28T07:48:45Z
2020-06-28T05:51:03Z,42.805,6.029,13.2974,4.59981,2470.063,2020-6-28T07:51:48Z
2020-06-28T05:54:06Z,42.805,6.029,13.2974,4.59981,2470.053,2020-6-28T07:54:52Z
2020-06-28T05:57:09Z,42.805,6.029,13.2979,4.59981,2470.04,2020-6-28T07:57:55Z
2020-06-28T06:00:13Z,42.805,6.029,13.2973,4.59980,2470.04,2020-6-28T08:00:58Z
2020-06-28T06:03:16Z,42.805,6.029,13.2974,4.59977,2470.053,2020-6-28T08:04:01Z
2020-06-28T06:06:19Z,42.805,6.029,13.2974,4.59978,2470.007,2020-6-28T08:07:04Z
2020-06-28T06:09:22Z,42.805,6.029,13.2972,4.59979,2470.04,2020-6-28T08:10:08Z
2020-06-28T06:12:26Z,42.805,6.029,13.2976,4.59988,2470.04,2020-6-28T08:13:11Z
2020-06-28T06:15:29Z,42.805,6.029,13.2971,4.59981,2470.04,2020-6-28T08:16:14Z
2020-06-28T06:18:32Z,42.805,6.029,13.2978,4.59984,2470.007,2020-6-28T08:19:18Z
2020-06-28T06:21:35Z,42.805,6.029,13.2976,4.59983,2470.03,2020-6-28T08:22:21Z
2020-06-28T06:24:39Z,42.805,6.029,13.2975,4.59990,2470.017,2020-6-28T08:25:24Z
2020-06-28T06:27:42Z,42.805,6.029,13.2971,4.59982,2470.03,2020-6-28T08:28:27Z
2020-06-28T06:30:45Z,42.805,6.029,13.2971,4.59978,2470.04,2020-6-28T08:31:31Z
2020-06-28T06:33:48Z,42.805,6.029,13.2972,4.59979,2470.053,2020-6-28T08:34:34Z
2020-06-28T06:36:52Z,42.805,6.029,13.2972,4.59984,2470.017,2020-6-28T08:37:37Z
2020-06-28T06:39:55Z,42.805,6.029,13.2976,4.59983,2470.03,2020-6-28T08:40:40Z
2020-06-28T06:42:58Z,42.805,6.029,13.2975,4.59981,2469.993,2020-6-28T08:43:44Z
2020-06-28T06:46:01Z,42.805,6.029,13.2976,4.59981,2470.04,2020-6-28T08:46:47Z
2020-06-28T06:49:05Z,42.805,6.029,13.2975,4.59979,2469.993,2020-6-28T08:49:50Z
2020-06-28T06:52:08Z,42.805,6.029,13.2974,4.59982,2469.979,2020-6-28T08:52:53Z
2020-06-28T06:55:11Z,42.805,6.029,13.2971,4.59978,2469.993,2020-6-28T08:55:56Z
2020-06-28T06:58:14Z,42.805,6.029,13.2972,4.59978,2470.017,2020-6-28T08:59:00Z
2020-06-28T07:01:18Z,42.805,6.029,13.2975,4.59978,2470.017,2020-6-28T09:02:03Z
2020-06-28T07:04:21Z,42.805,6.029,13.2975,4.59980,2469.993,2020-6-28T09:05:06Z
2020-06-28T07:07:24Z,42.805,6.029,13.2974,4.59986,2470.04,2020-6-28T09:08:09Z
2020-06-28T07:10:27Z,42.805,6.029,13.2976,4.59984,2469.979,2020-6-28T09:11:13Z
2020-06-28T07:13:30Z,42.805,6.029,13.2975,4.59984,2470.017,2020-6-28T09:14:16Z
2020-06-28T07:16:34Z,42.805,6.029,13.2971,4.59988,2470.017,2020-6-28T09:17:19Z
2020-06-28T07:19:37Z,42.805,6.029,13.2974,4.59980,2469.993,2020-6-28T09:20:22Z
2020-06-28T07:22:40Z,42.805,6.029,13.2976,4.59981,2470.017,2020-6-28T09:23:26Z
2020-06-28T07:25:44Z,42.805,6.029,13.2973,4.59981,2470.017,2020-6-28T09:26:29Z
2020-06-28T07:28:47Z,42.805,6.029,13.2973,4.59991,2469.993,2020-6-28T09:29:32Z
2020-06-28T07:31:50Z,42.805,6.029,13.2976,4.59982,2470.017,2020-6-28T09:32:36Z
2020-06-28T07:34:53Z,42.805,6.029,13.2979,4.59981,2470.017,2020-6-28T09:35:39Z
2020-06-28T07:37:57Z,42.805,6.029,13.2974,4.59987,2470.017,2020-6-28T09:38:42Z
2020-06-28T07:41:00Z,42.805,6.029,13.2977,4.59982,2469.993,2020-6-28T09:41:45Z
2020-06-28T07:44:03Z,42.805,6.029,13.2981,4.59982,2470.017,2020-6-28T09:44:49Z
2020-06-28T07:47:07Z,42.805,6.029,13.2973,4.59982,2469.993,2020-6-28T09:47:52Z
2020-06-28T07:50:10Z,42.805,6.029,13.2971,4.59979,2470.007,2020-6-28T09:50:55Z
2020-06-28T07:53:13Z,42.805,6.029,13.2978,4.59981,2469.993,2020-6-28T09:53:59Z
2020-06-28T07:56:16Z,42.805,6.029,13.2971,4.59978,2469.993,2020-6-28T09:57:02Z
2020-06-28T07:59:20Z,42.805,6.029,13.2977,4.59981,2470.017,2020-6-28T10:00:05Z
2020-06-28T08:02:23Z,42.805,6.029,13.2979,4.59981,2470.007,2020-6-28T10:03:08Z
2020-06-28T08:05:26Z,42.805,6.029,13.2974,4.59982,2470.007,2020-6-28T10:06:12Z
2020-06-28T08:08:29Z,42.805,6.029,13.2975,4.59978,2470.017,2020-6-28T10:09:15Z
2020-06-28T08:11:33Z,42.805,6.029,13.2973,4.59980,2470.017,2020-6-28T10:12:18Z
2020-06-28T08:14:36Z,42.805,6.029,13.2980,4.59988,2470.017,2020-6-28T10:15:21Z
2020-06-28T08:17:39Z,42.805,6.029,13.2971,4.59979,2469.984,2020-6-28T10:18:25Z
2020-06-28T08:20:43Z,42.805,6.029,13.2971,4.59980,2470.007,2020-6-28T10:21:28Z
2020-06-28T08:23:46Z,42.805,6.029,13.2971,4.59979,2470.017,2020-6-28T10:24:31Z
2020-06-28T08:26:49Z,42.805,6.029,13.2969,4.59976,2469.984,2020-6-28T10:27:34Z
2020-06-28T08:29:52Z,42.805,6.029,13.2971,4.59978,2470.017,2020-6-28T10:30:38Z
2020-06-28T08:32:56Z,42.805,6.029,13.2977,4.59980,2469.993,2020-6-28T10:33:41Z
2020-06-28T08:35:59Z,42.805,6.029,13.2977,4.59980,2470.03,2020-6-28T10:36:44Z
2020-06-28T08:39:02Z,42.805,6.029,13.2974,4.59978,2470.03,2020-6-28T10:39:48Z
2020-06-28T08:42:06Z,42.805,6.029,13.2974,4.59981,2470.04,2020-6-28T10:42:51Z
2020-06-28T08:45:09Z,42.805,6.029,13.2971,4.59982,2470.007,2020-6-28T10:45:54Z
2020-06-28T08:48:12Z,42.805,6.029,13.2974,4.59984,2470.017,2020-6-28T10:48:57Z
2020-06-28T08:51:15Z,42.805,6.029,13.2971,4.59980,2470.007,2020-6-28T10:52:01Z
2020-06-28T08:54:19Z,42.805,6.029,13.2976,4.59978,2470.017,2020-6-28T10:55:04Z
2020-06-28T08:57:22Z,42.805,6.029,13.2975,4.59979,2470.017,2020-6-28T10:58:07Z
2020-06-28T09:00:25Z,42.805,6.029,13.2974,4.59979,2469.993,2020-6-28T11:01:10Z
2020-06-28T09:03:28Z,42.805,6.029,13.2979,4.59984,2470.017,2020-6-28T11:04:14Z
2020-06-28T09:06:31Z,42.805,6.029,13.2976,4.59981,2470.026,2020-6-28T11:07:17Z
2020-06-28T09:09:35Z,42.805,6.029,13.2974,4.59983,2470.017,2020-6-28T11:10:20Z
2020-06-28T09:12:38Z,42.805,6.029,13.2972,4.59979,2470.017,2020-6-28T11:13:23Z
2020-06-28T09:15:41Z,42.805,6.029,13.2979,4.59982,2469.993,2020-6-28T11:16:26Z
2020-06-28T09:18:44Z,42.805,6.029,13.2975,4.59978,2470.04,2020-6-28T11:19:30Z
2020-06-28T09:21:48Z,42.805,6.029,13.2975,4.59980,2470.017,2020-6-28T11:22:33Z
2020-06-28T09:24:51Z,42.805,6.029,13.2978,4.59978,2469.993,2020-6-28T11:25:36Z
2020-06-28T09:27:54Z,42.805,6.029,13.2976,4.59980,2470.03,2020-6-28T11:28:40Z
2020-06-28T09:30:57Z,42.805,6.029,13.2974,4.59978,2470.063,2020-6-28T11:31:43Z
2020-06-28T09:34:01Z,42.805,6.029,13.2975,4.59978,2470.03,2020-6-28T11:34:46Z
2020-06-28T09:37:04Z,42.805,6.029,13.2972,4.59977,2470.03,2020-6-28T11:37:49Z
2020-06-28T09:40:07Z,42.805,6.029,13.2974,4.59978,2470.017,2020-6-28T11:40:53Z
2020-06-28T09:43:10Z,42.805,6.029,13.2974,4.59978,2470.03,2020-6-28T11:43:56Z
2020-06-28T09:46:14Z,42.805,6.029,13.2974,4.59985,2470.04,2020-6-28T11:46:59Z
2020-06-28T09:49:17Z,42.805,6.029,13.2972,4.59981,2470.04,2020-6-28T11:50:02Z
2020-06-28T09:52:20Z,42.805,6.029,13.2974,4.59983,2470.04,2020-6-28T11:53:06Z
2020-06-28T09:55:24Z,42.805,6.029,13.2976,4.59983,2470.03,2020-6-28T11:56:09Z
2020-06-28T09:58:27Z,42.805,6.029,13.2971,4.59987,2470.053,2020-6-28T11:59:12Z
2020-06-28T10:01:30Z,42.805,6.029,13.2976,4.59979,2470.063,2020-6-28T12:02:16Z
2020-06-28T10:04:33Z,42.805,6.029,13.2979,4.59978,2470.017,2020-6-28T12:05:19Z
2020-06-28T10:07:37Z,42.805,6.029,13.2975,4.59980,2470.04,2020-6-28T12:08:22Z
2020-06-28T10:10:40Z,42.805,6.029,13.2979,4.59983,2470.04,2020-6-28T12:11:25Z
2020-06-28T10:13:43Z,42.805,6.029,13.2976,4.59980,2470.04,2020-6-28T12:14:29Z
2020-06-28T10:16:46Z,42.805,6.029,13.2977,4.59979,2470.04,2020-6-28T12:17:32Z
2020-06-28T10:19:50Z,42.805,6.029,13.2978,4.59981,2470.053,2020-6-28T12:20:35Z
2020-06-28T10:22:53Z,42.805,6.029,13.2974,4.59983,2470.04,2020-6-28T12:23:38Z
2020-06-28T10:25:56Z,42.805,6.029,13.2973,4.59978,2470.04,2020-6-28T12:26:41Z
2020-06-28T10:28:59Z,42.805,6.029,13.2976,4.59980,2470.04,2020-6-28T12:29:45Z
2020-06-28T10:32:03Z,42.805,6.029,13.2975,4.59981,2470.04,2020-6-28T12:32:48Z
2020-06-28T10:35:06Z,42.805,6.029,13.2976,4.59981,2470.04,2020-6-28T12:35:51Z
2020-06-28T10:38:09Z,42.805,6.029,13.2974,4.59983,2470.077,2020-6-28T12:38:54Z
2020-06-28T10:41:12Z,42.805,6.029,13.2975,4.59981,2470.063,2020-6-28T12:41:58Z
2020-06-28T10:44:15Z,42.805,6.029,13.2974,4.59978,2470.04,2020-6-28T12:45:01Z
2020-06-28T10:47:19Z,42.805,6.029,13.2972,4.59979,2470.053,2020-6-28T12:48:04Z
2020-06-28T10:50:22Z,42.805,6.029,13.2976,4.59978,2470.04,2020-6-28T12:51:07Z
2020-06-28T10:53:25Z,42.805,6.029,13.2974,4.59981,2470.063,2020-6-28T12:54:11Z
2020-06-28T10:56:29Z,42.805,6.029,13.2974,4.59978,2470.077,2020-6-28T12:57:14Z
2020-06-28T10:59:32Z,42.805,6.029,13.2976,4.59980,2470.087,2020-6-28T13:00:17Z
2020-06-28T11:02:35Z,42.805,6.029,13.2977,4.59981,2470.063,2020-6-28T13:03:21Z
2020-06-28T11:05:38Z,42.805,6.029,13.2974,4.59980,2470.087,2020-6-28T13:06:24Z
2020-06-28T11:08:42Z,42.805,6.029,13.2974,4.59981,2470.063,2020-6-28T13:09:27Z
2020-06-28T11:11:45Z,42.805,6.029,13.2971,4.59980,2470.063,2020-6-28T13:12:30Z
2020-06-28T11:14:48Z,42.805,6.029,13.2976,4.59981,2470.1,2020-6-28T13:15:33Z
2020-06-28T11:17:51Z,42.805,6.029,13.2973,4.59979,2470.077,2020-6-28T13:18:37Z
2020-06-28T11:20:55Z,42.805,6.029,13.2974,4.59986,2470.063,2020-6-28T13:21:40Z
2020-06-28T11:23:58Z,42.805,6.029,13.2972,4.59978,2470.087,2020-6-28T13:24:43Z
2020-06-28T11:27:01Z,42.805,6.029,13.2972,4.59979,2470.063,2020-6-28T13:27:47Z
2020-06-28T11:30:04Z,42.805,6.029,13.2976,4.59986,2470.1,2020-6-28T13:30:50Z
2020-06-28T11:33:08Z,42.805,6.029,13.2975,4.59980,2470.063,2020-6-28T13:33:53Z
2020-06-28T11:36:11Z,42.805,6.029,13.2978,4.59981,2470.077,2020-6-28T13:36:56Z
2020-06-28T11:39:14Z,42.805,6.029,13.2976,4.59978,2470.077,2020-6-28T13:40:00Z
2020-06-28T11:42:17Z,42.805,6.029,13.2976,4.59985,2470.1,2020-6-28T13:43:03Z
2020-06-28T11:45:21Z,42.805,6.029,13.2974,4.59979,2470.077,2020-6-28T13:46:06Z
2020-06-28T11:48:24Z,42.805,6.029,13.2972,4.59978,2470.063,2020-6-28T13:49:09Z
2020-06-28T11:51:27Z,42.805,6.029,13.2974,4.59980,2470.077,2020-6-28T13:52:13Z
2020-06-28T11:54:30Z,42.805,6.029,13.2971,4.59978,2470.1,2020-6-28T13:55:16Z
2020-06-28T11:57:34Z,42.805,6.029,13.2971,4.59979,2470.063,2020-6-28T13:58:19Z
2020-06-28T12:00:37Z,42.805,6.029,13.2973,4.59979,2470.063,2020-6-28T14:01:22Z
2020-06-28T12:03:40Z,42.805,6.029,13.2975,4.59978,2470.063,2020-6-28T14:04:26Z
2020-06-28T12:06:44Z,42.805,6.029,13.2974,4.59984,2470.049,2020-6-28T14:07:29Z
2020-06-28T12:09:47Z,42.805,6.029,13.2976,4.59981,2470.077,2020-6-28T14:10:32Z
2020-06-28T12:12:50Z,42.805,6.029,13.2973,4.59979,2470.11,2020-6-28T14:13:36Z
2020-06-28T12:15:54Z,42.805,6.029,13.2975,4.59981,2470.1,2020-6-28T14:16:39Z
2020-06-28T12:18:57Z,42.805,6.029,13.2975,4.59979,2470.1,2020-6-28T14:19:42Z
2020-06-28T12:22:00Z,42.805,6.029,13.2977,4.59981,2470.1,2020-6-28T14:22:46Z
2020-06-28T12:25:03Z,42.805,6.029,13.2976,4.59981,2470.087,2020-6-28T14:25:49Z
2020-06-28T12:28:06Z,42.805,6.029,13.2973,4.59980,2470.11,2020-6-28T14:28:52Z
2020-06-28T12:31:10Z,42.805,6.029,13.2974,4.59979,2470.1,2020-6-28T14:31:55Z
2020-06-28T12:34:13Z,42.805,6.029,13.2977,4.59978,2470.063,2020-6-28T14:34:58Z
2020-06-28T12:37:16Z,42.805,6.029,13.2976,4.59981,2470.124,2020-6-28T14:38:02Z
2020-06-28T12:40:20Z,42.805,6.029,13.2974,4.59978,2470.11,2020-6-28T14:41:05Z
2020-06-28T12:43:23Z,42.805,6.029,13.2974,4.59983,2470.087,2020-6-28T14:44:08Z
2020-06-28T12:46:26Z,42.805,6.029,13.2974,4.59978,2470.11,2020-6-28T14:47:11Z
2020-06-28T12:49:29Z,42.805,6.029,13.2980,4.59978,2470.124,2020-6-28T14:50:15Z
2020-06-28T12:52:32Z,42.805,6.029,13.2976,4.59981,2470.087,2020-6-28T14:53:18Z
2020-06-28T12:55:36Z,42.805,6.029,13.2979,4.59981,2470.063,2020-6-28T14:56:21Z
2020-06-28T12:58:39Z,42.805,6.029,13.2977,4.59979,2470.087,2020-6-28T14:59:24Z
2020-06-28T13:01:42Z,42.805,6.029,13.2974,4.59981,2470.087,2020-6-28T15:02:28Z
2020-06-28T13:04:45Z,42.805,6.029,13.2976,4.59981,2470.11,2020-6-28T15:05:31Z
2020-06-28T13:07:49Z,42.805,6.029,13.2976,4.59983,2470.1,2020-6-28T15:08:34Z
2020-06-28T13:10:52Z,42.805,6.029,13.2976,4.59978,2470.087,2020-6-28T15:11:37Z
2020-06-28T13:13:55Z,42.805,6.029,13.2968,4.59977,2470.124,2020-6-28T15:14:41Z
2020-06-28T13:16:58Z,42.805,6.029,13.2979,4.59981,2470.087,2020-6-28T15:17:44Z
2020-06-28T13:20:02Z,42.805,6.029,13.2972,4.59981,2470.11,2020-6-28T15:20:47Z
2020-06-28T13:23:05Z,42.805,6.029,13.2974,4.59980,2470.087,2020-6-28T15:23:50Z
2020-06-28T13:26:08Z,42.805,6.029,13.2976,4.59978,2470.1,2020-6-28T15:26:54Z
2020-06-28T13:29:11Z,42.805,6.029,13.2976,4.59980,2470.087,2020-6-28T15:29:57Z
2020-06-28T13:32:15Z,42.805,6.029,13.2974,4.59996,2470.063,2020-6-28T15:33:00Z
2020-06-28T13:35:18Z,42.805,6.029,13.2975,4.59979,2470.119,2020-6-28T15:36:03Z
2020-06-28T13:38:21Z,42.805,6.029,13.2975,4.59979,2470.11,2020-6-28T15:39:07Z
2020-06-28T13:41:24Z,42.805,6.029,13.2971,4.59978,2470.063,2020-6-28T15:42:10Z
2020-06-28T13:44:28Z,42.805,6.029,13.2979,4.59993,2470.073,2020-6-28T15:45:13Z
2020-06-28T13:47:31Z,42.805,6.029,13.2978,4.59980,2470.063,2020-6-28T15:48:16Z
2020-06-28T13:50:34Z,42.805,6.029,13.2978,4.59978,2470.087,2020-6-28T15:51:19Z
2020-06-28T13:53:37Z,42.805,6.029,13.2976,4.59979,2470.063,2020-6-28T15:54:23Z
2020-06-28T13:56:41Z,42.805,6.029,13.2979,4.59979,2470.063,2020-6-28T15:57:26Z
2020-06-28T13:59:44Z,42.805,6.029,13.2976,4.59982,2470.087,2020-6-28T16:00:29Z
2020-06-28T14:02:47Z,42.805,6.029,13.2973,4.59980,2470.1,2020-6-28T16:03:32Z
2020-06-28T14:05:50Z,42.805,6.029,13.2979,4.59985,2470.1,2020-6-28T16:06:36Z
2020-06-28T14:08:53Z,42.805,6.029,13.2973,4.59982,2470.077,2020-6-28T16:09:39Z
2020-06-28T14:11:57Z,42.805,6.029,13.2979,4.59981,2470.053,2020-6-28T16:12:42Z
2020-06-28T14:15:00Z,42.805,6.029,13.2978,4.59983,2470.063,2020-6-28T16:15:45Z
2020-06-28T14:18:03Z,42.805,6.029,13.2976,4.59981,2470.077,2020-6-28T16:18:49Z
2020-06-28T14:21:06Z,42.805,6.029,13.2979,4.59981,2470.087,2020-6-28T16:21:52Z
2020-06-28T14:24:10Z,42.805,6.029,13.2976,4.59979,2470.087,2020-6-28T16:24:55Z
2020-06-28T14:27:13Z,42.805,6.029,13.2971,4.59981,2470.04,2020-6-28T16:27:58Z
2020-06-28T14:30:16Z,42.805,6.029,13.2974,4.59980,2470.063,2020-6-28T16:31:01Z
2020-06-28T14:33:19Z,42.805,6.029,13.2970,4.59985,2470.1,2020-6-28T16:34:05Z
2020-06-28T14:36:22Z,42.805,6.029,13.2971,4.59986,2470.1,2020-6-28T16:37:08Z
2020-06-28T14:39:26Z,42.805,6.029,13.2978,4.59989,2470.063,2020-6-28T16:40:11Z
2020-06-28T14:42:29Z,42.805,6.029,13.2975,4.59983,2470.063,2020-6-28T16:43:14Z
2020-06-28T14:45:32Z,42.805,6.029,13.2974,4.59979,2470.087,2020-6-28T16:46:18Z
2020-06-28T14:48:35Z,42.805,6.029,13.2979,4.59980,2470.04,2020-6-28T16:49:21Z
2020-06-28T14:51:39Z,42.805,6.029,13.2972,4.59978,2470.063,2020-6-28T16:52:24Z
2020-06-28T14:54:42Z,42.805,6.029,13.2974,4.59983,2470.063,2020-6-28T16:55:27Z
2020-06-28T14:57:45Z,42.805,6.029,13.2974,4.59981,2470.063,2020-6-28T16:58:30Z
2020-06-28T15:00:48Z,42.805,6.029,13.2974,4.59981,2470.063,2020-6-28T17:01:34Z
2020-06-28T15:03:52Z,42.805,6.029,13.2975,4.59995,2470.063,2020-6-28T17:04:37Z
2020-06-28T15:06:55Z,42.805,6.029,13.2974,4.59982,2470.073,2020-6-28T17:07:40Z
2020-06-28T15:09:58Z,42.805,6.029,13.2975,4.59982,2470.063,2020-6-28T17:10:43Z
2020-06-28T15:13:01Z,42.805,6.029,13.2974,4.59982,2470.063,2020-6-28T17:13:47Z
2020-06-28T15:16:05Z,42.805,6.029,13.2977,4.59986,2470.04,2020-6-28T17:16:50Z